Tracking 27086 objects as of 22-Mar-2023
HD Live streaming from Space Station
objects crossing your sky now

ONEWEB-0564

Track ONEWEB-0564 now!
10-day predictions
ONEWEB-0564 is classified as:


NORAD ID: 55801
Int'l Code: 2023-029F
Perigee: 593.3 km
Apogee: 608.1 km
Inclination: 86.5 °
Period: 96.6 minutes
Semi major axis: 6971 km
RCS: Unknown
Launch date: March 9, 2023
Source: United Kingdom (UK)
Launch site: AIR FORCE EASTERN TEST RANGE (AFETR)
Your satellite tracking list
Your tracking list is empty




NASA's NSSDC Master Catalog

Two Line Element Set (TLE):
1 55801U 23029F   23081.25566280  .00007374  00000-0  73507-3 0  9999
2 55801  86.5097 193.8285 0010619 164.8076 195.3473 14.91407100  2563
Source of the keplerian elements: AFSPC